Flag for India Weather past 2 weeks in Fatehpur, Uttar Pradesh, India

Now
95 °F

Scattered clouds.


Feels Like: 116 °F
Forecast: 82 / 98 °F
Wind: 9 mph from Northeast

Location: Lucknow / Amausi

Current Time: Aug 28, 2014 at 5:12:25 PM

Latest Report: Aug 28, 2014 at 4:30 PM


Visibility: 3 mi

Pressure: 29.56 "Hg

Humidity: 63%

Dew point: 81 °F

Location of FatehpurLocation

Historic Weather in Fatehpur — Graph

°F

Fatehpur temperature yesterday

Maximum temperature yesterday: 102 °F (at 3:00 PM)
Minimum temperature yesterday: 82 °F (at 7:00 PM)
Average temperature yesterday: 91 °F

Past Weeks' High & Low Weather Summary

 TemperatureHumidityPressure
High106 °F (Aug 26, 3:30 PM)94% (Aug 16, 2:00 AM)29.77 "Hg (Aug 16, 2:00 AM)
Low79 °F (Aug 16, 5:00 AM)42% (Aug 24, 5:00 PM)29.45 "Hg (Aug 13, 3:30 PM)
Average91 °F70%29.61 "Hg
* Reported Aug 13 3:30 PM — Aug 28 4:00 PM, Fatehpur, Weather by CustomWeather, © 2014

Note: Actual official high and low records may vary slightly from our data, if they occured in-between our weather recording intervals... More about our weather records

Advertising

Fatehpur weather history for previous 24 hours

 ConditionsComfort  
Time TempWeatherWind HumidityBarometerVisibility
4:00 PM
Aug 28
95 °FScattered clouds.10 mph63%29.56 "Hg3 mi
3:30 PM97 °FScattered clouds.8 mph60%29.59 "Hg3 mi
3:00 PM97 °FScattered clouds.8 mph60%29.59 "Hg3 mi
2:00 PM95 °FScattered clouds.7 mph63%29.62 "Hg2 mi
1:00 PM99 °FBroken clouds.6 mph64%29.65 "Hg2 mi
12:30 PM97 °FBroken clouds.6 mph63%29.68 "Hg2 mi
12:00 PM97 °FScattered clouds.7 mph63%29.68 "Hg2 mi
11:30 AM95 °FScattered clouds.7 mph67%29.68 "Hg2 mi
11:00 AM93 °FScattered clouds.7 mph67%29.68 "Hg2 mi
10:30 AM93 °FFog.7 mph67%29.68 "Hg2 mi
9:00 AM90 °FFog.8 mph79%29.68 "Hg2 mi
8:30 AM88 °FFog.6 mph84%29.68 "Hg2 mi
7:30 AM84 °FFog.6 mph89%29.68 "Hg2 mi
7:00 AM82 °FBroken clouds.5 mph89%29.68 "Hg2 mi
6:30 AM81 °FBroken clouds.5 mph94%29.65 "Hg2 mi
6:00 AM81 °FPassing clouds.3 mph94%29.65 "Hg2 mi
5:30 AM81 °FPassing clouds.3 mph94%29.62 "Hg2 mi
5:00 AM81 °FPassing clouds.3 mph89%29.62 "Hg2 mi
4:00 AM81 °FPassing clouds.3 mph89%29.62 "Hg2 mi
2:00 AM81 °FPartly cloudy.2 mph89%29.62 "Hg2 mi
1:00 AM82 °FPartly cloudy.3 mph89%29.62 "Hg2 mi
12:00 AM82 °FPartly cloudy.3 mph89%29.62 "Hg2 mi
8:00 PM
Aug 27
82 °FPartly cloudy.6 mph89%29.56 "Hg2 mi
7:30 PM82 °FThundershowers. Mostly cloudy.3 mph89%29.56 "Hg2 mi
7:00 PM82 °FThundershowers. More clouds than sun.3 mph89%29.53 "Hg2 mi
5:30 PM91 °FBroken clouds.No wind71%29.50 "Hg3 mi
5:00 PM93 °FBroken clouds.2 mph71%29.50 "Hg3 mi
Weather by CustomWeather, © 2014

See weather overviewHow to use our weather pages